Weather in Novyi Starodub

Ukraine / Kirovohrad Region     48°30′41″N   33°10′02″E
temp.,
°C
wind,
m/s
gust,
m/s
humid.,
%
clouds,
%
prec.,
mm/h
press.,
hPa
HPBL,
m
12 april, mon
mon1200:00+8nne4958100 0.0 1024157
03:00+8nne41061100 0.0 1023234
06:00+8nne4966100 0.3 1022346
09:00+8nne3669100 1.1 1021389
12:00+9ene3474100 0.0 1021513
15:00+12se2369100 0.0 1020848
18:00+12sse2372100 0.0 1020171
21:00+11s2277100 0.0 102152
13 april, tue
tue1300:00+10sse2380100 0.0 102170
03:00+10sse2386100 0.1 102178
06:00+9sse2289100 0.0 102056
09:00+10sse3586100 0.0 1021381
12:00+13s556998 0.1 10201038
15:00+14s556499 0.1 10201136
18:00+14s3462100 0.1 1019995
21:00+12s3673100 0.4 1019153
14 april, wed
wed1400:00+11s3677100 0.0 1019191
03:00+9ssw2583100 0.0 1018225
06:00+8s238891 0.0 1018157
09:00+10s347432 0.0 1018490
12:00+14s445590 0.0 10171421
15:00+15se445297 0.3 10151402
18:00+15se345549 0.3 10141267
21:00+12sse376472 0.6 1015151
15 april, thu
thu1500:00+9se4874100 0.0 1015213
03:00+8se3783100 0.0 1014212
06:00+8ese3784100 0.0 1013287
09:00+9se4783100 0.1 1013460
12:00+12se4570100 0.0 1013988
15:00+10s5683100 0.4 1012526
18:00+9sse2491100 3.4 1012371
21:00+8sse2393100 5.6 1012186
16 april, fri
fri1600:00+8s4793100 2.5 1011448
03:00+7sse5994100 2.9 1011384
06:00+7s6896100 0.6 1011417
09:00+7ssw6992100 1.1 1012470
12:00+8ssw688096 0.0 1014816
15:00+9ssw677045 0.1 1015997
18:00+8sw566695 0.0 10161118
21:00+6wsw367593 0.1 1017405